Location: Barcelona
(41.3830°N, 2.1830°E)
Time: 12:18:52
(UTC+01:00)

ISS - Pass Details

Date: 21 October 2020
Orbit: 417 x 420 km, 51.6° (Epoch: 29 October)

Event Time Altitude Azimuth Distance (km) Brightness Sun altitude
Rises 06:47:17 0° 184° (S) 2,342 0.0 -16.2°
Reaches altitude 10° 06:50:38 10° 147° (SSE) 1,486 -0.5 -15.6°
Maximum altitude 06:51:41 11° 129° (SE) 1,418 -0.3 -15.4°
Drops below altitude 10° 06:52:44 10° 110° (ESE) 1,490 0.2 -15.2°
Sets 06:56:06 0° 74° (ENE) 2,359 1.6 -14.6°
